Regional Weather Roundup
Issued by NWS

Home | Current Version | Previous Version | Text Only | Print | Product List | Glossary Off
Versions: 1 2 3 4 5 6 7 8 9 10 11 12 13 14 15 16 17 18 19 20 21 22 23 24 25 26 27 28 29 30 31 32 33 34 35 36 37 38 39 40 41 42 43 44 45 46 47 48 49 50

000
ASUS43 KDTX 081510
RWRMI
MICHIGAN HOURLY REGIONAL WEATHER ROUNDUP
NATIONAL WEATHER SERVICE DETROIT/PONTIAC MI
1000 AM EST THU DEC 08 2016

NOTE: "FAIR" INDICATES FEW OR NO CLOUDS BELOW 12,000 FEET WITH NO
SIGNIFICANT WEATHER AND/OR OBSTRUCTION TO VISIBILITY.

MIZ047>049-052>055-059>063-066>070-074>076-081>083-081600-
SOUTHEAST LOWER MICHIGAN

CITY           SKY/WX    TMP DP  RH WIND       PRES   REMARKS
ADRIAN         CLOUDY    25  18  74 W13       30.11R WCI  14
ALMA           CLOUDY    26  18  70 W18       30.04R WCI  13
ANN ARBOR      FLURRIES  26  20  77 W12       30.06R WCI  16
BAD AXE        FLURRIES  26  17  70 W14G20    29.97R WCI  14
CARO           CLOUDY    26  18  70 SW13G24   30.00R WCI  15
DETROIT CITY   CLOUDY    28  20  71 W13G22    30.06R WCI  17
DETROIT        FLURRIES  29  19  66 SW15      30.08R WCI  18
FLINT          FLURRIES  27  18  69 W14       30.03R WCI  16
GROSSE ILE     LGT SNOW  27  21  76 W10G20    30.08R WCI  18
HILLSDALE      FLURRIES  23  18  80 W14G23    30.07R WCI  11
HOWELL         SNOW      26  22  85 W12G21    30.04R VSB<1/4 WCI  15

CITY           SKY/WX    TMP DP  RH WIND       PRES   REMARKS
JACKSON        LGT SNOW  24  21  88 W12       30.07R VSB 3/4 WCI  13
LAMBERTVILLE   FLURRIES  27  19  72 SW12G18   30.12R WCI  17
LANSING        LGT SNOW  25  19  78 W14       30.06R WCI  13
LAPEER         NOT AVBL
MASON          FLURRIES  26  19  75 W14G23    30.05R WCI  14
MONROE         FLURRIES  27  21  77 W14G24    30.09R WCI  16
MT. CLEMENS    FLURRIES  29  18  63 W21G26    30.02R WCI  16
PONTIAC        LGT SNOW  25  20  81 W14       30.02R VSB 1   WCI  13
PORT HOPE        N/A     27  18  69 SW16G23   29.94R WCI  15
PORT HURON     CLOUDY    27  19  74 W8G16     30.03R WCI  18
TRI CITIES     LGT SNOW  26  19  74 W16G25    30.02R WCI  14
MIDLAND        FLURRIES  27  17  66 W13G20    30.00R WCI  16
TROY           LGT SNOW  29  20  71 SW8G17    30.06R WCI  21
SAGINAW HB     CLOUDY    28  18  64 W15G24    30.02R WCI  17
$$
MIZ043>046-050>051-056>058-064>065-071>073-077>080-081600-
SOUTHWEST LOWER MICHIGAN

CITY           SKY/WX    TMP DP  RH WIND       PRES   REMARKS
BATTLE CREEK   LGT SNOW  26  20  77 W10       30.08R WCI  16
BENTON HARBOR  LGT SNOW  24  17  74 W24G32    30.17R WCI   8
BIG RAPIDS     LGT SNOW  24  19  79 W8        30.01R WCI  16
COLDWATER      FLURRIES  24  17  75 W17G28    30.11R WCI  11
FREMONT        LGT SNOW  24  19  83 W13G18    30.05  WCI  12
HOLLAND        FLURRIES  26  19  74 W16G25    30.10R WCI  14
GRAND RAPIDS   LGT SNOW  24  20  84 W15G24    30.08R VSB 1   WCI  11
IONIA          LGT SNOW  25  20  83 W15G23    30.05R WCI  12
KALAMAZOO      LGT SNOW  26  20  77 W13       30.11R WCI  15
LUDINGTON      CLOUDY    25  19  80 W13G24    30.04S WCI  13
MARSHALL       FLURRIES  26  21  84 W14       30.08R WCI  14
MOUNT PLEASANT PTSUNNY   26  18  73 W12G20    30.01R WCI  15
MUSKEGON       FLURRIES  26  17  68 W20G28    30.09R WCI  12
SOUTH HAVEN    CLOUDY    25  19  77 W13G28    30.14R WCI  13
$$
MIZ016>042-081600-
NORTHERN LOWER MICHIGAN

CITY           SKY/WX    TMP DP  RH WIND       PRES   REMARKS
ALPENA         CLOUDY    27  18  69 SW15      29.88R WCI  15
BEAVER ISLAND  LGT SNOW  29  26  88 W14G21    29.90R WCI  18
BELLAIRE       LGT SNOW  27  24  87 W6        29.94R WCI  21
CADILLAC       LGT SNOW  22  18  85 W12G17    29.94R WCI  10
CHARLEVOIX     LGT SNOW  30  28  90 W21G28    29.92S VSB 1   WCI  17
FRANKFORT      CLOUDY    27  23  84 W14G25    29.99R WCI  16
GAYLORD        LGT SNOW  25  19  78 SW14      29.87R WCI  13
GRAYLING       LGT SNOW  24  19  81 W13       29.92R WCI  12
HARBOR SPRINGS LGT SNOW  29  26  87 W10G17    29.88R WCI  20
HOUGHTON LAKE  CLOUDY    23  17  78 W15G24    29.94R WCI  10
MANISTEE       LGT SNOW  25  20  81 W20G32    30.02R WCI  11
OSCODA         FLURRIES  28  19  69 MISG      29.92S
PELLSTON       LGT SNOW  28  24  85 W10       29.88R VSB 1   WCI  19
ROGERS CITY    LGT SNOW  28  23  82 W12G18    29.86R WCI  18
TRAVERSE CITY  LGT SNOW  27  22  81 VRB6      29.96R WCI  20
$$
MIZ007>008-015-081600-
EASTERN UPPER MICHIGAN

CITY           SKY/WX    TMP DP  RH WIND       PRES   REMARKS
KINROSS        LGT SNOW  23  20  88 W12       29.83R FOG     WCI  12
MACKINAC ISLAN CLOUDY    27  24  87 W15G24    29.85R WCI  15
NEWBERRY       PTSUNNY   24  21  88 W7        29.86R WCI  16
S. S. MARIE    MOSUNNY   29  20  69 NW10      29.81R WCI  20
MUNISING         N/A     33  24  69 N21G26    29.91R WCI  21
$$
MIZ004>006-011>014-085-081600-
CENTRAL UPPER MICHIGAN

CITY           SKY/WX    TMP DP  RH WIND       PRES   REMARKS
MANISTIQUE     LGT SNOW  25  23  91 W9        29.91R WCI  16
ESCANABA       SUNNY     25  18  74 W13       29.97R WCI  14
MENOMINEE      SUNNY     22  14  71 W9        30.03  WCI  12
SAWYER-GWINN   LGT SNOW  23  21  93 NW7       29.93R WCI  15
$$
MIZ001>003-009>011-084-081600-
WESTERN UPPER MICHIGAN

CITY           SKY/WX    TMP DP  RH WIND       PRES   REMARKS
IRON MOUNTAIN  CLOUDY    23  16  74 W10       29.97R WCI  12
HOUGHTON       SNOW      26  21  81 N18       30.00R VSB 1/2 WCI  13
IRONWOOD       LGT SNOW  25  21  86 NW15      30.09R VSB 3/4 WCI  12
$$

ABBREVIATIONS USED IN REMARKS
   TC - TEMPERATURE IN CELSIUS
  WCI - WIND CHILL INDEX
   HX - HEAT INDEX
  VSB - VISIBILITY




USA.gov is the U.S. government's official web portal to all federal, state and local government web resources and services.